Weather History for Bentonville, AR

Change the Weather History Date:

Sunday, November 17, 2013

  Actual Average Record
Temperature  
Mean Temperature 61 °F -  
Max Temperature 71 °F 56 °F 77 °F (1958)
Min Temperature 51 °F 35 °F 5 °F (1959)
Degree Days  
Heating Degree Days 4    
Growing Degree Days 11 (Base 50)    
Moisture  
Dew Point 43 °F    
Average Humidity 48    
Maximum Humidity 78    
Minimum Humidity 24    
Precipitation  
Precipitation 0.00 in - - ()
Sea Level Pressure  
Sea Level Pressure 29.78 in    
Wind  
Wind Speed 16 mph (West)    
Max Wind Speed 26 mph    
Max Gust Speed 33 mph    
Visibility 10 miles    
Events      
Averages and records for this station are not official NWS values.
T = Trace of Precipitation, MM = Missing Value Source: NWS Daily Summary

Daily Weather History Graph

Daily Weather History Graph

Search for Another Location

Airport:

Trip Planner

Search our weather history database for the weather conditions in past years. The results will help you decide how hot, cold, wet, or windy it might be!

Date:

Astronomy

Nov. 17, 2013 Rise Set
Actual Time 6:56 AM CST 5:07 PM CST
Civil Twilight 6:28 AM CST 5:34 PM CST
Nautical Twilight 5:57 AM CST 6:05 PM CST
Astronomical Twilight 5:27 AM CST 6:36 PM CST
Moon 5:24 PM CST (11/17) 6:51 AM CST (11/17)
Length of Visible Light 11h 05m
Length of Day
10h 10m
Full, 100% of the Moon is Illuminated
Nov 17
Full
Nov 25
Last Quarter
Dec 2
New
Dec 9
First Quarter
Dec 17
Full

Hourly Weather History & Observations

Time (CST) Temp. Dew Point Humidity Pressure Visibility Wind Dir Wind Speed Gust Speed Precip Events Conditions
12:15 AM 69.8 °F 62.6 °F 78% 29.62 in 10.0 mi SSW 19.6 mph 26.5 mph N/A   Mostly Cloudy
12:35 AM 69.8 °F 62.6 °F 78% 29.62 in 10.0 mi SSW 20.7 mph 26.5 mph N/A   Overcast
12:55 AM 69.8 °F 62.6 °F 78% 29.62 in 10.0 mi SSW 19.6 mph 27.6 mph N/A   Overcast
1:15 AM 69.8 °F 62.6 °F 78% 29.61 in 10.0 mi SSW 16.1 mph 29.9 mph N/A   Overcast
1:35 AM 69.8 °F 62.6 °F 78% 29.60 in 10.0 mi SSW 21.9 mph 27.6 mph N/A   Overcast
1:55 AM 69.8 °F 62.6 °F 78% 29.60 in 10.0 mi SSW 20.7 mph 31.1 mph N/A   Overcast
2:15 AM 69.8 °F 62.6 °F 78% 29.60 in 10.0 mi SSW 21.9 mph 28.8 mph N/A   Overcast
2:35 AM 69.8 °F 62.6 °F 78% 29.60 in 10.0 mi SSW 21.9 mph 28.8 mph N/A   Overcast
2:55 AM 69.8 °F 62.6 °F 78% 29.59 in 10.0 mi SSW 16.1 mph 27.6 mph N/A   Overcast
3:15 AM 69.8 °F 62.6 °F 78% 29.60 in 10.0 mi SW 16.1 mph 26.5 mph N/A   Overcast
3:35 AM 69.8 °F 62.6 °F 78% 29.60 in 10.0 mi SSW 15.0 mph 27.6 mph N/A   Overcast
3:55 AM 69.8 °F 62.6 °F 78% 29.59 in 10.0 mi SSW 17.3 mph 25.3 mph N/A   Overcast
4:15 AM 69.8 °F 62.6 °F 78% 29.59 in 10.0 mi SSW 17.3 mph 25.3 mph N/A   Mostly Cloudy
4:35 AM 69.8 °F 62.6 °F 78% 29.59 in 10.0 mi SSW 17.3 mph 25.3 mph N/A   Overcast
4:55 AM 69.8 °F 62.6 °F 78% 29.58 in 10.0 mi SSW 13.8 mph 23.0 mph N/A   Overcast
5:15 AM 69.8 °F 62.6 °F 78% 29.57 in 10.0 mi SSW 18.4 mph 25.3 mph N/A   Overcast
5:35 AM 69.8 °F 62.6 °F 78% 29.57 in 10.0 mi SSW 17.3 mph 25.3 mph N/A   Overcast
5:55 AM 69.8 °F 62.6 °F 78% 29.57 in 10.0 mi SSW 17.3 mph 28.8 mph N/A   Overcast
6:15 AM 69.8 °F 62.6 °F 78% 29.57 in 10.0 mi SSW 20.7 mph 29.9 mph N/A   Overcast
6:35 AM 69.8 °F 60.8 °F 73% 29.57 in 10.0 mi SSW 17.3 mph 25.3 mph N/A   Overcast
6:55 AM 69.8 °F 60.8 °F 73% 29.58 in 10.0 mi SW 17.3 mph 27.6 mph N/A   Mostly Cloudy
7:15 AM 69.8 °F 60.8 °F 73% 29.58 in 10.0 mi SSW 24.2 mph 28.8 mph N/A   Scattered Clouds
7:35 AM 69.8 °F 60.8 °F 73% 29.59 in 10.0 mi SW 17.3 mph 23.0 mph N/A   Partly Cloudy
7:55 AM 69.8 °F 60.8 °F 73% 29.61 in 10.0 mi SW 20.7 mph 31.1 mph N/A   Scattered Clouds
8:15 AM 69.8 °F 60.8 °F 73% 29.62 in 10.0 mi SW 20.7 mph 33.4 mph N/A   Partly Cloudy
8:35 AM 71.6 °F 59.0 °F 64% 29.64 in 10.0 mi WSW 18.4 mph 27.6 mph N/A   Partly Cloudy
8:55 AM 71.6 °F 57.2 °F 60% 29.66 in 10.0 mi WSW 26.5 mph 33.4 mph N/A   Mostly Cloudy
9:15 AM 71.6 °F 55.4 °F 57% 29.67 in 10.0 mi West 18.4 mph 33.4 mph N/A   Mostly Cloudy
9:35 AM 71.6 °F 55.4 °F 57% 29.69 in 10.0 mi WSW 25.3 mph 31.1 mph N/A   Mostly Cloudy
9:55 AM 71.6 °F 53.6 °F 53% 29.70 in 10.0 mi West 21.9 mph 32.2 mph N/A   Mostly Cloudy
10:15 AM 71.6 °F 51.8 °F 50% 29.72 in 10.0 mi West 18.4 mph 28.8 mph N/A   Mostly Cloudy
10:35 AM 71.6 °F 48.2 °F 43% 29.73 in 10.0 mi West 19.6 mph 25.3 mph N/A   Partly Cloudy
10:55 AM 71.6 °F 44.6 °F 38% 29.74 in 10.0 mi West 13.8 mph 25.3 mph N/A   Clear
11:15 AM 71.6 °F 39.2 °F 31% 29.75 in 10.0 mi WNW 19.6 mph 25.3 mph N/A   Clear
11:35 AM 71.6 °F 39.2 °F 31% 29.76 in 10.0 mi NW 16.1 mph 24.2 mph N/A   Clear
11:55 AM 69.8 °F 37.4 °F 31% 29.76 in 10.0 mi WNW 16.1 mph 20.7 mph N/A   Clear
12:15 PM 69.8 °F 37.4 °F 31% 29.77 in 10.0 mi WNW 12.7 mph 18.4 mph N/A   Clear
12:35 PM 68.0 °F 35.6 °F 30% 29.78 in 10.0 mi NW 13.8 mph 19.6 mph N/A   Clear
12:55 PM 68.0 °F 33.8 °F 28% 29.78 in 10.0 mi WNW 12.7 mph - N/A   Clear
1:15 PM 68.0 °F 33.8 °F 28% 29.78 in 10.0 mi WNW 10.4 mph - N/A   Clear
1:35 PM 69.8 °F 33.8 °F 27% 29.79 in 10.0 mi WNW 15.0 mph - N/A   Clear
1:55 PM 68.0 °F 30.2 °F 24% 29.79 in 10.0 mi NW 16.1 mph - N/A   Clear
2:15 PM 68.0 °F 30.2 °F 24% 29.79 in 10.0 mi NW 12.7 mph - N/A   Clear
2:35 PM 69.8 °F 32.0 °F 25% 29.80 in 10.0 mi NW 11.5 mph - N/A   Clear
2:55 PM 68.0 °F 32.0 °F 26% 29.81 in 10.0 mi WNW 15.0 mph - N/A   Clear
3:15 PM 68.0 °F 33.8 °F 28% 29.82 in 10.0 mi WNW 12.7 mph - N/A   Clear
3:35 PM 68.0 °F 30.2 °F 24% 29.83 in 10.0 mi WNW 12.7 mph - N/A   Clear
3:55 PM 66.2 °F 30.2 °F 26% 29.84 in 10.0 mi WNW 12.7 mph - N/A   Clear
4:15 PM 66.2 °F 32.0 °F 28% 29.86 in 10.0 mi WNW 13.8 mph 17.3 mph N/A   Clear
4:35 PM 64.4 °F 30.2 °F 28% 29.87 in 10.0 mi West 11.5 mph - N/A   Clear
4:55 PM 64.4 °F 30.2 °F 28% 29.88 in 10.0 mi WNW 6.9 mph - N/A   Clear
5:15 PM 60.8 °F 30.2 °F 31% 29.89 in 10.0 mi WNW 8.1 mph - N/A   Clear
5:35 PM 62.6 °F 28.4 °F 27% 29.91 in 10.0 mi NW 8.1 mph - N/A   Clear
5:55 PM 62.6 °F 28.4 °F 27% 29.92 in 10.0 mi WNW 6.9 mph - N/A   Clear
6:15 PM 60.8 °F 28.4 °F 29% 29.94 in 10.0 mi NW 9.2 mph - N/A   Clear
6:35 PM 59.0 °F 28.4 °F 31% 29.95 in 10.0 mi NW 8.1 mph - N/A   Clear
6:55 PM 57.2 °F 26.6 °F 31% 29.96 in 10.0 mi NW 5.8 mph - N/A   Clear
7:15 PM 57.2 °F 26.6 °F 31% 29.96 in 10.0 mi NW 6.9 mph - N/A   Clear
7:35 PM 57.2 °F 24.8 °F 29% 29.97 in 10.0 mi NW 5.8 mph - N/A   Clear
7:55 PM 55.4 °F 24.8 °F 31% 29.98 in 10.0 mi WNW 5.8 mph - N/A   Clear
8:15 PM 55.4 °F 24.8 °F 31% 29.99 in 10.0 mi NW 4.6 mph - N/A   Clear
8:35 PM 55.4 °F 24.8 °F 31% 30.01 in 10.0 mi NW 9.2 mph - N/A   Clear
8:55 PM 55.4 °F 21.2 °F 26% 30.02 in 10.0 mi WNW 9.2 mph - N/A   Clear
9:15 PM 55.4 °F 21.2 °F 26% 30.03 in 10.0 mi WNW 9.2 mph - N/A   Clear
9:35 PM 55.4 °F 19.4 °F 25% 30.05 in 10.0 mi NW 6.9 mph - N/A   Clear
9:55 PM 53.6 °F 19.4 °F 26% 30.05 in 10.0 mi NW 8.1 mph - N/A   Clear
10:15 PM 53.6 °F 19.4 °F 26% 30.05 in 10.0 mi NNW 8.1 mph - N/A   Clear
10:35 PM 53.6 °F 19.4 °F 26% 30.04 in 10.0 mi North 10.4 mph - N/A   Clear
10:55 PM 53.6 °F 21.2 °F 28% 30.06 in 10.0 mi NNW 8.1 mph 16.1 mph N/A   Clear
11:15 PM 51.8 °F 21.2 °F 30% 30.08 in 10.0 mi NNW 4.6 mph - N/A   Clear
11:35 PM 53.6 °F 23.0 °F 30% 30.08 in 10.0 mi North 8.1 mph - N/A   Clear
11:55 PM 51.8 °F 24.8 °F 35% 30.09 in 10.0 mi North 10.4 mph - N/A   Clear